RH
80 77 62 45 54 54 42 28 22 26 34 29 16 12 10 9 26 58 79 64 59 58 48 67 70 67 86 86 81 96 85 76 63 47 39 21 13 13 11 13 12 10 9 7 5 4 4
73 72 72 72 57 31 32 29 25 24 30 31 19 12 10 11 10 12 39 39 48 60 58 43 62 66 69 86 80 94 91 68 49 42 29 16 11 10 10 14 11 9 6 5 4 3 2
76 83 90 74 81 60 38 28 20 19 20 24 20 14 11 10 10 9 9 12 41 89 80 42 47 66 68 85 100 84 86 67 50 35 20 19 14 11 11 12 8 6 5 4 3 2 2
68 69 76 70 56 62 28 13 9 10 11 16 16 12 10 8 9 10 10 10 18 94 100 80 56 54 65 96 98 94 76 56 37 26 20 14 12 14 12 7 6 5 4 3 2 2 1
79 59 38 20 10 6 5 5 4 5 7 8 8 10 8 8 9 10 11 10 10 39 96 100 90 90 94 88 91 85 58 43 33 26 18 12 13 12 8 6 5 4 2 2 2 1 1
15 8 6 5 4 4 4 3 3 3 4 5 6 6 8 7 8 10 12 11 11 16 43 80 100 100 100 96 97 72 48 30 22 14 12 14 12 8 6 5 4 2 2 2 1 1 1
7 6 4 3 3 3 3 3 3 2 2 3 4 5 6 7 8 10 10 15 14 16 18 41 81 96 100 100 80 49 33 22 14 12 15 12 7 5 5 4 3 2 2 2 1 1 1
4 3 3 2 2 2 2 2 2 2 2 2 4 5 6 8 10 11 15 19 19 24 44 72 94 99 100 86 66 43 21 11 13 16 11 6 5 6 4 3 2 1 1 1 1 1 2
3 2 2 2 2 2 1 1 1 1 2 2 3 6 7 10 12 14 24 23 50 93 100 98 100 100 88 74 52 20 10 15 15 9 6 5 5 3 3 2 1 1 1 1 1 1 1
3 2 2 2 1 1 1 1 1 1 2 2 5 6 9 12 17 28 37 64 100 100 100 100 100 81 54 34 23 14 19 14 9 7 6 4 3 2 2 1 1 1 1 1 1 1 1
3 2 2 1 1 1 1 1 1 1 2 2 4 7 11 18 29 38 85 100 100 100 100 100 98 57 38 27 22 22 14 8 7 6 5 3 2 1 1 1 1 1 2 2 2 2 2
3 3 2 2 1 1 1 1 2 1 2 4 6 11 22 32 43 100 100 100 100 100 100 100 55 40 35 38 24 12 9 7 5 4 2 2 2 2 2 2 2 2 2 2 2 2 2
4 3 2 2 2 2 2 2 2 3 5 7 10 18 28 80 100 100 100 100 100 100 94 62 51 38 42 34 17 11 8 5 3 2 2 2 2 2 2 2 2 2 2 2 2 2 2
7 4 4 3 3 3 4 5 6 7 8 12 17 42 100 100 100 100 100 100 100 75 78 62 56 45 31 16 9 6 4 2 2 2 2 2 2 2 2 2 2 2 2 3 3 3 3
10 6 5 5 6 8 8 10 12 12 17 44 100 100 100 100 100 100 99 97 92 89 88 84 40 24 16 10 7 5 2 2 2 2 2 2 2 2 2 2 2 3 3 3 3 3 3
14 10 9 9 14 21 23 23 28 43 79 100 87 95 100 100 100 94 99 99 96 99 66 38 21 17 13 9 6 4 2 2 2 2 2 2 2 2 2 2 2 3 3 4 4 4 4
38 14 17 29 30 50 60 98 100 100 76 71 93 100 100 100 100 100 100 100 86 52 33 24 17 17 13 10 8 4 3 2 2 2 2 2 2 3 3 4 3 3 4 5 6 5 6
99 51 14 32 57 56 74 100 82 71 95 97 100 100 100 100 99 100 100 66 42 35 30 21 20 18 16 15 9 4 2 3 3 2 2 2 2 4 4 5 4 4 4 7 7 8 9
100 100 39 16 38 59 81 66 87 100 100 100 100 100 100 97 100 91 62 45 39 38 28 27 24 19 17 18 14 8 4 3 3 3 2 2 3 4 6 6 6 6 6 6 7 10 14
27 100 96 22 22 45 77 87 96 100 100 100 100 100 100 100 99 64 49 45 42 38 33 36 29 23 23 23 18 13 8 5 4 4 3 3 4 5 5 7 9 8 7 8 10 7 11
34 48 100 49 27 43 98 86 96 98 100 100 100 100 100 100 77 56 50 48 44 42 40 42 34 29 30 31 24 23 13 10 8 6 4 4 4 6 8 6 6 8 8 8 10 12 11
44 28 51 87 47 58 80 84 98 100 100 100 100 100 100 94 74 57 51 51 48 47 46 45 41 38 44 40 34 26 20 19 13 11 9 7 6 6 7 8 10 8 7 8 11 16 13
52 32 34 95 75 74 76 86 84 100 100 100 100 100 100 90 77 60 54 52 52 51 50 50 47 44 50 48 42 40 28 27 25 22 20 14 12 10 7 8 9 11 11 11 10 12 17
72 45 30 70 93 92 94 66 100 100 100 100 100 100 100 93 80 65 56 53 54 53 53 55 51 48 51 52 55 46 44 39 40 32 36 27 23 18 18 13 9 10 10 11 12 13 19
75 62 44 31 76 100 99 78 92 100 100 100 100 100 100 99 92 76 61 56 55 52 52 54 51 53 53 49 54 56 64 56 53 50 46 44 38 37 29 27 21 17 12 10 11 11 14
80 38 33 33 30 73 100 87 79 100 96 100 100 100 100 100 100 93 74 59 56 55 53 51 52 54 55 50 51 49 56 66 60 70 58 51 44 42 39 41 40 34 29 25 20 13 11
93 75 38 38 28 29 91 100 81 94 94 100 100 100 100 100 100 100 94 71 60 56 54 52 49 53 54 56 54 56 52 52 54 56 59 65 64 54 48 43 44 47 48 45 50 43 28
91 97 72 33 37 30 38 88 98 93 82 90 100 100 100 100 100 100 100 90 71 60 55 54 52 56 58 54 56 55 51 52 50 50 48 56 58 63 66 60 58 51 50 51 52 50 56
100 77 50 30 41 31 27 55 100 100 90 91 91 100 100 100 100 100 100 100 91 70 61 56 54 58 59 62 60 57 55 58 51 54 51 49 50 52 55 54 58 67 70 61 60 57 63
Wind_Speed
78 79 79 77 79 78 76 70 67 70 76 84 83 82 87 89 97 109 108 105 98 93 86 83 82 83 81 81 80 80 83 83 82 86 87 87 84 75 77 75 72 70 67 59 59 64 63
72 75 80 80 81 75 75 75 73 70 73 78 81 80 77 78 85 87 100 105 99 93 91 85 82 80 78 84 81 82 87 86 87 90 92 88 84 80 77 77 75 72 64 60 59 64 60
78 82 86 83 84 87 82 76 73 70 70 74 77 74 70 71 71 75 82 90 93 94 91 88 83 80 77 82 86 86 88 88 91 93 92 89 81 81 80 79 77 70 64 59 60 60 59
85 86 89 89 87 90 82 74 69 68 70 73 74 70 66 63 64 65 70 79 84 96 93 89 86 80 79 82 87 89 88 91 94 92 90 82 79 80 81 81 73 70 62 60 62 59 57
90 89 86 84 80 73 72 69 63 64 69 72 69 67 60 57 54 55 61 62 66 77 94 95 88 86 87 86 89 90 90 91 92 91 83 81 79 81 84 76 72 68 61 58 61 60 57
80 75 71 66 63 60 61 58 57 56 61 67 66 62 54 48 45 47 50 49 53 60 68 76 88 90 94 93 93 91 91 90 89 82 75 79 81 84 79 74 71 66 62 61 60 61 54
71 65 58 53 48 46 45 45 50 50 53 60 59 53 45 37 33 37 38 36 41 47 57 60 76 85 90 93 92 92 89 87 79 68 78 81 82 79 77 74 71 68 65 58 57 57 48
67 58 49 44 40 37 36 36 42 38 44 50 46 42 37 28 23 26 24 24 29 33 40 52 62 77 83 86 88 91 83 72 65 74 78 80 74 76 75 72 71 63 58 55 52 53 50
63 54 48 41 35 32 28 24 25 26 34 35 35 35 29 24 23 20 20 18 21 28 37 42 52 63 77 83 85 76 64 59 71 73 75 73 75 75 72 67 63 56 50 48 47 42 47
55 49 41 33 28 22 19 15 12 17 25 28 35 37 32 28 26 23 24 23 27 30 32 39 46 58 68 72 68 57 54 65 70 68 69 74 74 71 62 57 52 48 41 37 33 31 34
54 44 37 30 23 19 11 7 3 14 24 29 32 38 37 35 32 31 30 35 28 26 30 36 47 55 58 56 50 52 60 64 64 71 71 71 65 55 51 46 41 35 29 24 22 24 26
56 47 39 32 29 22 14 17 11 13 20 30 42 45 44 43 42 43 40 31 26 25 29 36 41 44 47 50 47 53 60 63 65 64 62 54 46 44 36 31 25 21 17 14 17 19 27
63 47 40 33 35 32 27 28 23 29 40 49 51 52 54 51 51 43 34 29 23 23 24 26 31 35 41 44 51 58 60 59 57 50 42 37 33 27 21 18 13 11 11 12 15 21 26
58 49 42 37 39 37 40 45 47 49 53 57 59 60 64 57 48 40 31 23 14 9 12 21 27 34 39 43 52 54 53 46 40 35 29 25 21 17 12 10 6 7 11 15 15 18 24
51 44 42 43 43 47 50 56 57 59 62 66 69 67 59 52 43 35 24 14 4 5 13 21 25 31 38 43 50 48 40 37 31 26 22 19 14 9 7 6 5 10 13 16 18 21 28
70 48 44 46 53 58 60 59 63 65 66 67 63 58 53 46 38 27 21 11 3 6 15 22 25 36 41 44 48 43 40 33 29 26 19 14 10 5 4 2 6 11 13 15 19 25 27
79 55 47 53 54 56 60 64 63 63 61 59 59 54 47 42 32 25 16 10 7 13 19 26 33 42 42 46 49 42 35 32 27 23 18 13 9 9 13 13 7 13 17 20 19 26 32
70 68 46 38 47 49 53 58 56 56 56 52 52 47 41 35 28 23 15 15 16 21 26 31 39 47 49 52 51 47 41 34 32 29 23 19 17 18 21 20 18 16 23 27 24 29 31
57 60 55 35 30 40 48 46 50 52 51 46 44 39 34 28 26 23 19 21 23 25 29 38 44 49 52 57 58 55 47 42 37 32 28 26 24 22 24 25 22 15 21 23 32 35 36
65 47 43 41 23 29 38 42 43 44 46 41 35 30 26 25 25 22 23 23 24 29 34 40 45 50 55 64 65 61 55 48 43 41 38 31 31 22 23 28 28 19 18 21 21 29 41
69 47 34 28 19 18 33 33 39 38 38 34 27 26 24 24 22 20 21 22 25 30 34 38 43 48 56 61 66 69 63 62 56 48 48 41 35 33 30 22 23 23 21 18 20 24 30
80 54 33 14 22 14 25 28 32 34 31 23 22 21 22 22 20 16 17 19 22 27 31 35 41 47 54 60 64 68 69 70 66 65 61 55 48 40 36 34 28 21 20 20 22 22 22
112 67 38 3 19 10 20 24 27 28 29 20 16 16 19 19 17 13 15 16 20 25 30 33 37 44 50 56 61 66 68 74 74 74 73 70 64 56 48 39 34 33 29 24 19 17 22
112 87 50 6 14 11 15 15 24 25 25 21 15 13 16 17 13 9 10 14 18 22 27 31 34 39 45 49 55 58 65 69 73 75 77 73 74 71 68 58 47 37 32 30 28 25 18
111 115 59 32 6 15 17 16 19 22 27 23 19 13 13 14 11 7 5 10 13 17 22 27 30 36 38 43 47 53 59 64 68 71 71 71 72 72 71 70 66 61 49 40 29 26 30
116 104 91 42 20 11 26 25 24 24 26 25 20 18 14 13 11 8 5 4 9 11 15 21 25 30 34 37 41 43 51 54 59 63 65 65 67 67 68 70 67 67 62 61 52 39 29
127 111 90 57 31 20 26 31 29 28 28 28 24 21 19 15 12 11 8 5 2 6 9 15 20 24 29 33 36 38 42 46 50 53 56 57 62 62 62 65 65 62 61 63 59 53 52
127 112 109 62 41 27 26 34 37 35 32 31 30 24 23 21 17 15 13 9 5 0 4 8 13 18 23 26 30 33 35 39 42 43 46 49 50 56 58 59 59 56 55 54 50 51 48
124 117 103 92 50 32 29 39 44 43 39 36 34 32 27 26 22 19 18 14 12 7 3 4 8 13 17 21 24 27 29 32 34 38 39 43 41 45 49 48 51 52 50 50 48 46 44
Wind_Direction
300 301 301 296 292 290 290 286 276 273 268 265 263 258 256 253 251 251 251 253 252 255 255 254 257 262 263 268 272 274 275 276 279 280 282 282 284 290 293 295 294 291 284 277 269 263 257
312 308 303 298 296 295 291 286 280 272 263 263 262 260 254 253 250 250 248 252 250 249 254 254 255 259 262 265 269 271 275 277 277 278 279 282 285 291 293 294 294 288 283 279 273 264 258
317 311 306 303 298 293 289 283 277 271 261 258 259 260 255 253 247 248 247 248 247 250 252 253 254 258 261 265 268 271 274 275 276 277 280 283 290 290 292 293 292 287 285 284 275 265 259
316 310 303 298 293 287 283 278 270 264 257 251 253 256 254 252 248 248 245 244 246 244 249 252 256 258 261 263 266 269 272 272 274 276 280 291 289 291 291 291 290 287 290 284 277 265 257
310 303 296 290 286 282 278 274 268 258 254 249 249 249 248 250 247 246 244 242 245 245 246 251 255 261 262 263 267 268 270 271 274 278 287 289 291 289 290 291 290 291 288 280 275 263 258
307 303 298 293 287 282 277 273 268 255 246 247 244 245 243 247 244 244 242 240 242 244 246 250 250 255 261 263 265 268 269 271 277 286 291 289 289 289 293 292 292 293 288 284 276 263 263
318 314 305 295 288 281 273 265 256 251 242 241 240 238 235 239 240 243 241 242 242 243 244 249 250 254 258 261 263 267 270 274 285 295 289 288 290 294 292 293 296 295 290 283 275 270 263
328 324 320 312 304 290 273 262 255 246 237 236 231 225 225 225 221 227 223 230 232 237 243 246 252 253 257 260 263 268 272 285 295 289 288 290 294 292 295 298 295 288 281 273 266 261 255
334 333 329 322 313 300 287 273 261 241 230 227 215 206 205 195 200 196 198 194 201 219 234 248 251 254 257 261 265 273 289 296 289 289 294 295 295 298 298 293 286 283 280 272 263 258 252
344 343 339 334 330 318 308 291 259 224 210 198 188 186 173 171 164 159 149 171 190 212 236 245 253 257 260 264 274 295 298 290 291 296 299 300 299 298 295 291 290 285 278 270 260 251 245
355 358 358 0 356 356 5 358 230 203 190 180 178 156 155 149 144 140 154 171 186 215 232 245 253 261 268 281 301 302 293 293 302 303 301 299 298 296 291 290 284 278 271 262 248 233 220
9 12 17 24 30 33 51 76 96 145 153 144 145 142 134 132 134 145 162 166 188 209 233 250 267 278 290 301 308 298 299 307 305 303 299 299 296 292 291 284 277 271 261 241 229 212 205
13 18 27 39 49 59 62 79 92 112 127 135 133 129 125 128 141 152 154 175 184 214 244 279 292 303 313 316 307 304 308 309 307 302 304 300 297 293 291 276 272 256 228 209 205 201 197
17 22 33 52 66 78 89 99 109 121 125 125 122 124 128 139 141 145 154 171 192 248 302 309 318 323 317 315 310 312 318 315 314 317 311 306 312 311 296 273 243 216 190 173 179 184 177
30 28 44 62 78 90 100 107 110 113 115 118 123 129 130 133 137 138 152 138 147 333 315 322 336 332 338 324 321 331 332 328 334 330 330 337 334 314 300 274 178 166 164 167 166 169 173
23 38 60 74 81 89 91 98 107 114 120 125 125 125 130 132 127 132 125 136 96 328 342 348 349 2 354 333 334 350 350 350 352 351 356 1 5 0 13 29 155 152 149 139 156 158 157
19 28 62 81 87 95 104 111 116 120 121 123 123 126 126 121 127 126 126 119 53 23 6 7 12 16 7 3 1 7 2 2 10 17 20 30 46 64 72 67 99 127 122 131 142 152 159
10 15 31 76 94 101 107 115 116 117 117 119 120 120 118 123 125 117 112 75 54 34 20 16 17 22 22 24 15 16 19 21 26 33 37 40 48 77 84 82 88 114 130 130 144 145 159
13 2 10 24 80 106 114 114 115 115 119 117 115 118 122 122 116 106 87 70 54 37 25 21 19 24 29 34 33 31 29 31 38 42 51 57 60 85 92 91 91 110 126 141 147 148 154
11 13 354 8 49 93 110 112 114 120 117 115 118 121 123 115 108 98 80 67 53 42 33 26 22 24 31 37 38 42 42 40 46 50 54 62 68 72 96 104 101 108 123 137 146 158 156
13 11 5 358 24 78 117 117 119 118 114 118 126 130 123 112 106 94 80 65 53 45 38 32 26 26 30 36 42 42 47 51 52 56 61 62 68 75 74 83 105 113 120 134 147 162 165
11 9 15 340 358 113 122 128 129 119 118 123 136 137 121 113 106 95 84 68 54 47 42 38 32 32 36 35 41 42 50 51 55 57 60 63 65 69 78 83 80 86 92 105 132 162 165
10 7 3 316 345 156 148 146 133 128 129 138 156 146 124 120 112 102 86 73 60 50 48 43 42 41 43 43 39 42 45 49 53 54 57 62 64 65 66 71 83 89 88 89 96 137 155
4 7 6 333 343 193 179 170 147 143 142 143 176 165 134 130 127 117 93 79 65 58 53 47 43 45 48 47 48 44 45 48 50 51 52 55 57 61 63 65 68 73 83 91 97 101 127
359 2 2 351 263 260 217 204 178 166 159 158 180 188 158 149 149 148 116 86 71 61 55 49 47 46 48 50 50 52 54 50 48 51 55 53 53 55 56 56 59 65 68 71 80 97 105
356 359 360 352 304 250 234 225 209 191 180 163 185 196 194 179 178 176 177 121 86 64 51 48 47 48 47 46 51 52 57 59 56 54 53 53 54 53 55 55 55 57 57 60 64 68 85
355 354 360 353 337 278 222 239 229 214 200 178 178 215 204 208 202 205 207 209 117 75 49 47 45 46 47 47 48 51 53 58 61 59 56 57 58 54 54 53 54 57 56 57 56 56 58
348 350 352 350 338 299 242 229 234 227 218 202 184 202 224 217 218 223 228 228 236 174 33 29 46 43 40 41 42 45 47 52 57 59 60 61 59 59 61 58 56 54 56 55 53 60 60
344 348 348 348 338 310 276 224 229 228 226 221 204 193 214 226 219 226 236 237 241 252 275 351 23 38 33 32 34 37 39 44 47 52 53 55 60 61 61 62 59 65 58 57 55 57 58